Flag for Canada Weather past 2 weeks in Sarnia, Ontario, Canada

Now
61 °F

Scattered clouds.


Feels Like: 61 °F
Forecast: 38 / 59 °F
Wind: 8 mph from West

Location: Sarnia Airport

Current Time: Oct 24, 2014 at 2:19:27 PM

Latest Report: Oct 24, 2014 at 2:00 PM


Visibility: 9 mi

Pressure: 30.02 "Hg

Humidity: 52%

Dew point: 43 °F

Location of SarniaLocation

Historic Weather in Sarnia — Graph

°F

Sarnia temperature yesterday

Maximum temperature yesterday: 54 °F (at 3:00 PM)
Minimum temperature yesterday: 39 °F (at 10:00 PM)
Average temperature yesterday: 46 °F

Past Weeks' High & Low Weather Summary

 TemperatureHumidityPressure
High72 °F (Oct 14, 1:00 PM)100% (Oct 16, 2:04 AM)30.34 "Hg (Oct 16, 2:04 AM)
Low34 °F (Oct 12, 4:00 AM)39% (Oct 9, 2:00 PM)29.48 "Hg (Oct 17, 3:00 PM)
Average51 °F80%29.96 "Hg
* Reported Oct 9 1:00 PM — Oct 24 1:00 PM, Sarnia, Weather by CustomWeather, © 2014

Note: Actual official high and low records may vary slightly from our data, if they occured in-between our weather recording intervals... More about our weather records

Advertising

Sarnia weather history for previous 24 hours

 ConditionsComfort  
Time TempWeatherWind HumidityBarometerVisibility
1:00 PM
Oct 24
59 °FPartly sunny.7 mph55%30.04 "Hg9 mi
12:00 PM57 °FSunny.7 mph63%30.06 "Hg9 mi
11:00 AM52 °FSunny.6 mph77%30.07 "Hg9 mi
10:00 AM45 °FFog.5 mph93%30.09 "Hg5 mi
9:00 AM37 °FSunny.3 mph100%30.09 "Hg9 mi
8:00 AM36 °FClear.5 mph100%30.09 "Hg9 mi
7:00 AM36 °FPassing clouds.3 mph93%30.09 "Hg9 mi
6:00 AM36 °FPassing clouds.5 mph93%30.09 "HgN/A
5:00 AM36 °FMostly cloudy.2 mph100%30.08 "Hg9 mi
3:00 AM36 °FClear.2 mph93%30.09 "HgN/A
2:02 AM36 °FFog.2 mph93%30.10 "Hg5 mi
1:00 AM36 °FClear.No wind93%30.11 "Hg8 mi
12:02 AM37 °FFog.3 mph93%30.11 "Hg5 mi
11:00 PM
Oct 23
39 °FClear.2 mph93%30.12 "Hg9 mi
10:00 PM39 °FClear.No wind93%30.11 "Hg9 mi
8:00 PM45 °FClear.2 mph87%30.13 "HgN/A
7:00 PM46 °FSunny.3 mph82%30.13 "Hg9 mi
6:00 PM50 °FSunny.7 mph76%30.14 "Hg9 mi
5:00 PM52 °FSunny.8 mph72%30.14 "Hg9 mi
4:00 PM54 °FSunny.8 mph67%30.15 "Hg9 mi
3:00 PM54 °FSunny.8 mph67%30.17 "Hg9 mi
2:00 PM52 °FSunny.7 mph72%30.19 "Hg9 mi
Weather by CustomWeather, © 2014

See weather overviewHow to use our weather pages